Regional Weather Roundup
Issued by NWS

Home | Current Version | Previous Version | Text Only | Print | Product List | Glossary On
Versions: 1 2 3 4 5 6 7 8 9 10 11 12 13 14 15 16 17 18 19 20 21 22 23 24 25 26 27 28 29 30 31 32 33 34 35 36 37 38 39 40 41 42 43 44 45 46 47 48 49 50
000
ASUS43 KMPX 262110
RWRMN
WEATHER ROUNDUP FOR MINNESOTA
NATIONAL WEATHER SERVICE TWIN CITIES/CHANHASSEN MN
300 PM CST THU FEB 26 2015


NOTE: "FAIR" INDICATES FEW OR NO CLOUDS BELOW 12,000 FEET WITH NO
SIGNIFICANT WEATHER AND/OR OBSTRUCTIONS TO VISIBILITY. N/A MEANS
CURRENT SKY AND/OR WEATHER CONDITIONS ARE NOT AVAILABLE.

MNZ060>063-068>070-262200-
   Twin Cities Metro

CITY           SKY/WX    TMP DP  RH WIND       PRES   REMARKS
TWIN CITIES    MOSUNNY   10  -7  46 NW15      30.43F WCI  -7
ST PAUL        SUNNY     11  -9  40 N12       30.45F WCI  -3
CRYSTAL        PTSUNNY   10  -6  48 NW10      30.43S WCI  -4
BLAINE         MOSUNNY   12  -6  44 NW10G16   30.42F WCI  -1
EDEN PRAIRIE   MOSUNNY    9  -7  48 W16       30.43S WCI  -8
SOUTH ST PAUL  SUNNY     11  -7  45 NW10      30.43S WCI  -3
LAKE ELMO      FAIR      10  -4  52 NW9       30.42S WCI  -2
$$
MNZ001>005-007-008-013>017-022>024-027-028-262200-
   Northwest Minnesota

CITY           SKY/WX    TMP DP  RH WIND       PRES   REMARKS
BEMIDJI        SUNNY      1 -12  54 NW12      30.41F WCI -15
HALLOCK        SUNNY      5  -6  61 NW13      30.51F WCI -12
ROSEAU         SUNNY      5  -8  56 W14       30.44F WCI -12
WARROAD        SUNNY      5  -8  56 SW12      30.42F WCI -11
THIEF RVR FALL SUNNY      1  -8  66 W10       30.48F WCI -14
CROOKSTON      SUNNY      5  -2  72 NW14      30.53F WCI -12
FOSSTON        SUNNY      3  -9  55 W8        30.47F WCI -10
DETROIT LAKES  MOSUNNY    3  -4  72 N14       30.47S WCI -15
MOORHEAD       MOSUNNY    7  -2  66 N10       30.54F WCI  -8
PARK RAPIDS    SUNNY      6 -10  47 NW10      30.40F WCI  -9
MAHNOMEN       FAIR       2  -7  66 NW10      30.48S WCI -14
$$
MNZ006-009>011-018-025>026-262200-
   North Central Minnesota

CITY           SKY/WX    TMP DP  RH WIND       PRES   REMARKS
BAUDETTE       SUNNY      4 -11  50 NW8       30.40F WCI  -9
FLAG ISLAND    PTSUNNY    1  -6  71 S9        30.39F WCI -14
INTL FALLS     SUNNY      3 -14  45 W9        30.38F WCI -12
WASKISH        SUNNY      3  -9  55 SW9       30.42F WCI -11
BIG FORK       SUNNY      9 -13  37 CALM      30.38S
LONGVILLE      SUNNY      3 -11  51 W10       30.41S WCI -12
GRAND RAPIDS   SUNNY      3  -9  55 W10G17    30.36F WCI -12
CRANE LAKE     SUNNY      3 -15  43 W6        30.38F WCI  -8
ORR            SUNNY      5 -15  39 W7        30.33S WCI  -7
COOK           SUNNY      5 -13  43 NW6       30.35S WCI  -6
WALKER         FAIR       3 -12  49 NW6       30.41S WCI  -8
$$
MNZ012-019>021-037-262200-
   Northeast Minnesota

CITY           SKY/WX    TMP DP  RH WIND       PRES   REMARKS
DULUTH         SUNNY      7 -11  43 NW12      30.31F WCI  -8
ELY            SUNNY      5 -15  39 NW5       30.30F WCI  -4
HIBBING        SUNNY      6 -10  47 NW14      30.35S WCI -11
EVELETH        SUNNY      7  -9  47 NW8       30.34F WCI  -6
DULUTH HARBOR  SUNNY     10  -8  44 W7        30.41F WCI   0
TWO HARBORS    SUNNY     12  -8  40 NW5       30.31F WCI   4
SILVER BAY     SUNNY     12 -11  34 W5        30.30F WCI   4
GRAND MARAIS     N/A     13  -9  37 VRB6      30.33F WCI   4
G MARAIS ARPRT SUNNY      5 -15  39 W10       30.21S WCI -10
$$
MNZ029>031-032-039>041-046>048-054>057-064-262200-
   West Central Minnesota

CITY           SKY/WX    TMP DP  RH WIND       PRES   REMARKS
FERGUS FALLS   MOSUNNY    3  -6  66 N14G22    30.53F HAZE    WCI -15
WHEATON        MOSUNNY    1  -8  66 NW16      30.55F HAZE    WCI -18
MORRIS         MOSUNNY    3  -6  66 NW20      30.48F HAZE    WCI -18
ALEXANDRIA     SUNNY      2  -9  60 NW10      30.43F WCI -14
ELBOW LAKE     FAIR       3  -6  65 N15       30.48S WCI -16
WADENA         SUNNY      3  -9  55 NW12      30.43S WCI -13
GLENWOOD       SUNNY      3  -8  60 NW18      30.44F WCI -17
APPLETON       MOSUNNY    3  -6  66 NW16      30.52S WCI -16
BENSON         CLOUDY     5  -6  61 N15G22    30.49S WCI -13
ORTONVILLE     PTSUNNY    1  -8  66 N13G18    30.52S WCI -16
MADISON        MOSUNNY    3  -6  66 N16       30.53S WCI -16
WILLMAR        FAIR       3  -8  60 NW15G22   30.48S WCI -15
$$
MNZ033>034-036-042>043-049>051-058-059-262200-
   Central Minnesota

CITY           SKY/WX    TMP DP  RH WIND       PRES   REMARKS
ST CLOUD       SUNNY      7  -8  50 NW10      30.43F WCI  -8
SAUK CENTRE    FAIR       4  -8  57 NW13G20   30.44S WCI -13
PAYNESVILLE    MOSUNNY    3  -7  61 W12       30.45S WCI -13
AITKIN         SUNNY     10 -11  37 NW5       30.38F WCI   2
PINE RIVER     SUNNY      5  -9  51 NW9       30.43S WCI  -9
BRAINERD       SUNNY      6 -10  47 N12       30.41F WCI  -9
STAPLES        SUNNY      5  -9  51 NW9       30.42F WCI  -9
LONG PRAIRIE   FAIR       5  -8  56 NW7       30.43F WCI  -7
LITTLE FALLS   SUNNY      7  -9  47 W9        30.43F WCI  -7
LITCHFIELD     SUNNY      7  -6  56 NW12      30.45S WCI  -9
BUFFALO        SUNNY      9  -6  52 NW10      30.45F WCI  -6
MAPLE LAKE     SUNNY     10  -4  53 NW8       30.45S WCI  -3
$$
MNZ037-044-045-052-053-262200-
   East Central Minnesota

CITY           SKY/WX    TMP DP  RH WIND       PRES   REMARKS
PRINCETON      SUNNY      9  -6  52 W10       30.43S WCI  -6
MORA           SUNNY      9  -9  43 NW8       30.43S WCI  -4
CAMBRIDGE      SUNNY      9  -6  52 W5        30.41S WCI   0
RUSH CITY      SUNNY     10  -7  48 W8        30.42S WCI  -3
MOOSE LAKE     SUNNY     10  -9  40 NW7       30.37S WCI   0
HINCKLEY       FAIR      10  -8  44 NW7       30.40S WCI   0
CLOQUET        SUNNY      7 -11  43 NW13      30.34F WCI  -9
MCGREGOR       SUNNY      9  -8  47 NW9       30.38F WCI  -5
$$
MNZ071>073-080-081-089-090-097-098-262200-
   Southwest Minnesota

CITY           SKY/WX    TMP DP  RH WIND       PRES   REMARKS
MONTEVIDEO     PTSUNNY    5  -6  61 N20       30.52S HAZE    WCI -15
GRANITE FALLS  CLOUDY     3  -6  66 W16G22    30.52F WCI -16
CANBY          CLOUDY     3  -5  66 NW16      30.52S WCI -16
MARSHALL       PTSUNNY    1  -8  66 N18       30.50S WCI -19
REDWOOD FALLS  PTSUNNY    4  -7  60 NW14G22   30.49S WCI -14
OLIVIA         CLOUDY     5  -4  66 NW15G22   30.48S HAZE    WCI -13
PIPESTONE      SUNNY      3  -6  66 N13       30.43S WCI -14
WINDOM         MOSUNNY    1  -6  71 NW15      30.44F WCI -18
WORTHINGTON    CLOUDY    27  -9  20 NW18      30.45S WCI  13
JACKSON        PTSUNNY    5  -6  61 NW17G23   30.44S HAZE    WCI -14
TRACY          CLOUDY     4  -3  71 NW15      30.47F HAZE    WCI -14
SLAYTON        PTSUNNY    2  -8  63 NW12G21   30.44S HAZE    WCI -14
$$
MNZ065>067-074>077-082>085-091>093-262200-
   South Central Minnesota

CITY           SKY/WX    TMP DP  RH WIND       PRES   REMARKS
MANKATO        PTSUNNY    5  -6  61 NW15      30.45S WCI -13
NEW ULM        SUNNY      3  -8  60 NW16G22   30.46F WCI -16
ST JAMES       CLOUDY     5  -4  66 NW20      30.48S HAZE    WCI -15
FAIRMONT       CLOUDY     5  -6  61 NW16G23   30.43S WCI -14
GLENCOE        MOSUNNY    8  -3  61 NW8       30.45S WCI  -5
FARIBAULT      SUNNY      9  -6  52 NW8       30.42S WCI  -4
OWATONNA       SUNNY      5  -8  56 NW13      30.41S WCI -12
WASECA         SUNNY      5  -6  61 NW12G17   30.44S WCI -11
ALBERT LEA     SUNNY      3  -6  66 NW13      30.40S WCI -14
$$
MNZ078>079-086>088-094>096-262200-
   Southeast Minnesota

CITY           SKY/WX    TMP DP  RH WIND       PRES   REMARKS
ROCHESTER      SUNNY      5  -6  60 NW12      30.37R WCI -11
RED WING       SUNNY     10 -11  37 NW8       30.42S WCI  -1
STANTON        SUNNY     10  -6  49 NW12      30.41S WCI  -5
DODGE CENTER   SUNNY      5  -6  61 NW15      30.37S WCI -13
WINONA         PTSUNNY   12  -2  52 NW8G18    30.42R WCI   1
AUSTIN         SUNNY      5  -8  56 NW15G23   30.39S WCI -13
PRESTON        PTSUNNY    6  -6  59 N12       30.36S WCI -10
$$
ABBREVIATIONS USED IN REMARKS
   TC - TEMPERATURES IN CELSIUS
  WCI - WIND CHILL INDEX
   HX - HEAT INDEX
  VSB - VISIBILITY
$$



USA.gov is the U.S. government's official web portal to all federal, state and local government web resources and services.